Hillsdale, MI

12:52 AM EST on January 21, 2017 (GMT -0500)
Hillsdale

Weather History for KJYM - October, 2012

Change the Weather History Date:

Tuesday, October 9, 2012

  Actual Average Record
Temperature  
Mean Temperature 48 °F -  
Max Temperature 61 °F 63 °F 85 °F (1949)
Min Temperature 35 °F 41 °F 21 °F (1989)
Degree Days  
Heating Degree Days 17    
Moisture  
Dew Point 34 °F    
Average Humidity 58    
Maximum Humidity 83    
Minimum Humidity 36    
Precipitation  
Precipitation 0.00 in - - ()
Sea Level Pressure  
Sea Level Pressure 29.99 in    
Wind  
Wind Speed 7 mph (SSW)    
Max Wind Speed 17 mph    
Max Gust Speed 25 mph    
Visibility 10 miles    
Events      
Averages and records for this station are not official NWS values.
T = Trace of Precipitation, MM = Missing Value Source: NWS Daily Summary

Daily Weather History Graph

Daily Weather History Graph

Search for Another Location

Airport or City:

Trip Planner

Search our weather history database for the weather conditions in past years. The results will help you decide how hot, cold, wet, or windy it might be!

Date:

Astronomy

Oct. 09, 2012 Rise Set
Actual Time 7:44 AM EDT 7:05 PM EDT
Civil Twilight 7:16 AM EDT 7:33 PM EDT
Nautical Twilight 6:44 AM EDT 8:05 PM EDT
Astronomical Twilight 6:11 AM EDT 8:38 PM EDT
Moon 1:14 AM EDT (10/9) 3:37 PM EDT (10/9)
Length of Visible Light 12h 17m
Length of Day
11h 21m
Last Quarter, 37% of the Moon is Illuminated
Oct 9
Last Quarter
Oct 15
New
Oct 21
First Quarter
Oct 29
Full
Nov 6
Last Quarter

Hourly Weather History & Observations

Time (EDT) Temp. Windchill Dew Point Humidity Pressure Visibility Wind Dir Wind Speed Gust Speed Precip Events Conditions
12:15 AM 38.5 °F 35.0 °F 29.1 °F 69% 30.11 in 10.0 mi South 4.6 mph - N/A   Clear
12:35 AM 37.6 °F 34.0 °F 30.0 °F 74% 30.10 in 10.0 mi South 4.6 mph - N/A   Clear
12:54 AM 37.2 °F 34.7 °F 30.0 °F 75% 30.10 in 10.0 mi South 3.5 mph - N/A   Clear
1:14 AM 37.2 °F 32.6 °F 29.7 °F 74% 30.09 in 10.0 mi South 5.8 mph - N/A   Clear
1:35 AM 37.0 °F 33.3 °F 29.7 °F 75% 30.09 in 10.0 mi South 4.6 mph - N/A   Clear
1:55 AM 37.0 °F 31.6 °F 29.7 °F 75% 30.09 in 10.0 mi South 6.9 mph - N/A   Clear
2:14 AM 37.0 °F 32.4 °F 29.5 °F 74% 30.09 in 10.0 mi South 5.8 mph - N/A   Clear
2:55 AM 39.4 °F 36.1 °F 29.7 °F 68% 30.09 in 10.0 mi South 4.6 mph - N/A   Clear
3:14 AM 38.5 °F 34.1 °F 29.8 °F 71% 30.09 in 10.0 mi South 5.8 mph - N/A   Clear
3:55 AM 36.7 °F 32.0 °F 29.8 °F 76% 30.08 in 10.0 mi South 5.8 mph - N/A   Clear
4:15 AM 36.9 °F 33.1 °F 30.0 °F 76% 30.07 in 10.0 mi South 4.6 mph - N/A   Clear
4:35 AM 36.3 °F 32.5 °F 30.0 °F 78% 30.07 in 10.0 mi South 4.6 mph - N/A   Clear
4:55 AM 36.0 °F 30.3 °F 30.0 °F 79% 30.07 in 10.0 mi South 6.9 mph - N/A   Clear
5:14 AM 36.0 °F 30.3 °F 30.4 °F 80% 30.07 in 10.0 mi South 6.9 mph - N/A   Clear
5:35 AM 36.0 °F 30.3 °F 30.7 °F 81% 30.07 in 10.0 mi South 6.9 mph - N/A   Clear
5:54 AM 35.2 °F 29.5 °F 30.6 °F 83% 30.07 in 10.0 mi South 6.9 mph - N/A   Clear
6:15 AM 36.0 °F 30.3 °F 31.1 °F 82% 30.07 in 10.0 mi South 6.9 mph - N/A   Clear
6:35 AM 36.1 °F 30.6 °F 31.3 °F 83% 30.07 in 10.0 mi South 6.9 mph - N/A   Clear
6:54 AM 37.0 °F 31.6 °F 31.6 °F 81% 30.07 in 10.0 mi South 6.9 mph - N/A   Clear
7:15 AM 37.8 °F 31.8 °F 31.8 °F 79% 30.07 in 10.0 mi South 8.1 mph - N/A   Clear
7:35 AM 37.9 °F 32.7 °F 32.0 °F 79% 30.07 in 10.0 mi South 6.9 mph - N/A   Clear
7:54 AM 38.1 °F 33.7 °F 32.2 °F 79% 30.06 in 10.0 mi South 5.8 mph - N/A   Clear
8:15 AM 38.3 °F 34.8 °F 32.2 °F 79% 30.06 in 10.0 mi South 4.6 mph - N/A   Clear
8:35 AM 40.3 °F 35.5 °F 32.4 °F 73% 30.06 in 10.0 mi South 6.9 mph - N/A   Clear
8:54 AM 41.7 °F 36.7 °F 32.9 °F 71% 30.07 in 10.0 mi South 8.1 mph - N/A   Clear
9:15 AM 43.3 °F 37.2 °F 32.9 °F 67% 30.06 in 10.0 mi SSW 11.5 mph 16.1 mph N/A   Clear
9:35 AM 44.6 °F 40.2 °F 33.6 °F 65% 30.06 in 10.0 mi SSW 8.1 mph - N/A   Clear
9:54 AM 46.2 °F 40.8 °F 34.5 °F 64% 30.06 in 10.0 mi SSW 11.5 mph - N/A   Clear
10:14 AM 48.2 °F - 35.2 °F 61% 30.05 in 10.0 mi SSW 9.2 mph 17.3 mph N/A   Clear
10:35 AM 49.3 °F - 35.4 °F 59% 30.05 in 10.0 mi SSW 8.1 mph 17.3 mph N/A   Clear
10:54 AM 50.7 °F - 35.2 °F 55% 30.05 in 10.0 mi SSW 10.4 mph 18.4 mph N/A   Clear
11:15 AM 52.7 °F - 36.0 °F 53% 30.04 in 10.0 mi SSW 10.4 mph 19.6 mph N/A   Clear
11:35 AM 54.5 °F - 36.7 °F 51% 30.04 in 10.0 mi SSW 12.7 mph 19.6 mph N/A   Clear
11:54 AM 55.0 °F - 36.1 °F 49% 30.04 in 10.0 mi SW 13.8 mph 21.9 mph N/A   Clear
12:15 PM 56.3 °F - 36.7 °F 48% 30.03 in 10.0 mi SSW 9.2 mph 19.6 mph N/A   Clear
12:35 PM 57.4 °F - 36.0 °F 45% 30.02 in 10.0 mi SW 16.1 mph 24.2 mph N/A   Clear
12:54 PM 58.3 °F - 36.0 °F 43% 30.01 in 10.0 mi SSW 17.3 mph 20.7 mph N/A   Clear
1:15 PM 58.5 °F - 35.6 °F 42% 30.01 in 10.0 mi SW 13.8 mph 23.0 mph N/A   Clear
1:35 PM 58.8 °F - 35.1 °F 41% 29.99 in 10.0 mi SSW 16.1 mph 24.2 mph N/A   Clear
1:54 PM 59.7 °F - 35.8 °F 41% 29.98 in 10.0 mi SSW 12.7 mph 20.7 mph N/A   Clear
2:14 PM 59.5 °F - 35.4 °F 41% 29.97 in 10.0 mi South 12.7 mph 19.6 mph N/A   Clear
2:35 PM 60.4 °F - 36.3 °F 41% 29.96 in 10.0 mi South 9.2 mph 21.9 mph N/A   Clear
2:55 PM 60.4 °F - 34.5 °F 38% 29.95 in 10.0 mi SSW 12.7 mph 21.9 mph N/A   Clear
3:14 PM 61.2 °F - 35.4 °F 38% 29.94 in 10.0 mi SW 15.0 mph 19.6 mph N/A   Clear
3:35 PM 61.2 °F - 35.1 °F 38% 29.94 in 10.0 mi SSW 13.8 mph 25.3 mph N/A   Clear
3:55 PM 61.2 °F - 35.1 °F 38% 29.93 in 10.0 mi SSW 12.7 mph 18.4 mph N/A   Clear
4:14 PM 61.0 °F - 34.3 °F 37% 29.92 in 10.0 mi South 12.7 mph 23.0 mph N/A   Clear
4:35 PM 61.2 °F - 34.2 °F 36% 29.91 in 10.0 mi South 13.8 mph 20.7 mph N/A   Clear
4:54 PM 59.9 °F - 33.4 °F 37% 29.91 in 10.0 mi SSW 13.8 mph 23.0 mph N/A   Clear
5:15 PM 59.4 °F - 33.3 °F 37% 29.91 in 10.0 mi SSW 13.8 mph 24.2 mph N/A   Clear
5:35 PM 58.8 °F - 34.2 °F 40% 29.91 in 10.0 mi SSW 9.2 mph 23.0 mph N/A   Clear
5:54 PM 58.8 °F - 33.4 °F 38% 29.91 in 10.0 mi SSW 11.5 mph 19.6 mph N/A   Clear
6:15 PM 58.3 °F - 34.0 °F 40% 29.90 in 10.0 mi SSW 10.4 mph - N/A   Clear
6:34 PM 57.0 °F - 34.9 °F 43% 29.90 in 10.0 mi SSW 8.1 mph - N/A   Clear
6:55 PM 56.5 °F - 34.3 °F 43% 29.89 in 10.0 mi SSW 5.8 mph - N/A   Clear
7:15 PM 55.8 °F - 34.5 °F 45% 29.90 in 10.0 mi SSW 4.6 mph - N/A   Clear
7:34 PM 55.4 °F - 34.7 °F 46% 29.90 in 10.0 mi SSW 6.9 mph - N/A   Clear
7:55 PM 54.1 °F - 35.2 °F 49% 29.90 in 10.0 mi SSW 3.5 mph - N/A   Clear
8:14 PM 53.8 °F - 35.8 °F 51% 29.90 in 10.0 mi South 4.6 mph - N/A   Clear
8:35 PM 53.4 °F - 36.0 °F 52% 29.90 in 10.0 mi South 5.8 mph - N/A   Clear
8:55 PM 53.1 °F - 36.1 °F 53% 29.89 in 10.0 mi South 4.6 mph - N/A   Clear
9:15 PM 53.1 °F - 36.7 °F 54% 29.89 in 10.0 mi South 4.6 mph - N/A   Clear
9:34 PM 52.9 °F - 36.7 °F 54% 29.88 in 10.0 mi South 5.8 mph - N/A   Clear
9:55 PM 52.7 °F - 37.0 °F 55% 29.88 in 10.0 mi South 5.8 mph - N/A   Clear
10:15 PM 52.5 °F - 37.0 °F 56% 29.88 in 10.0 mi SSW 6.9 mph - N/A   Clear
10:35 PM 52.7 °F - 37.0 °F 55% 29.87 in 10.0 mi South 6.9 mph - N/A   Clear
10:55 PM 53.1 °F - 37.0 °F 55% 29.86 in 10.0 mi SSW 10.4 mph - N/A   Clear
11:14 PM 52.5 °F - 37.4 °F 56% 29.86 in 10.0 mi SSW 8.1 mph - N/A   Clear
11:35 PM 52.0 °F - 37.6 °F 58% 29.85 in 10.0 mi SSW 8.1 mph - N/A   Clear
11:54 PM 51.8 °F - 37.8 °F 59% 29.84 in 10.0 mi SSW 10.4 mph - N/A   Scattered Clouds